Terminal Aerodrome Forecast
Issued by NWS Portland, OR

Home | Current Version | Previous Version | Text Only | Print | Product List | Glossary On
Versions: 1 2 3 4 5 6 7 8 9 10 11 12 13 14 15 16 17 18 19 20 21 22 23 24 25 26 27 28 29 30 31 32 33 34 35 36 37 38 39 40 41 42 43 44 45 46 47 48 49 50
000
FTUS46 KPQR 230520
TAFPDX
TAF
KPDX 230520Z 2306/2406 21004KT P6SM SCT035 BKN050
     FM230700 15003KT P6SM SCT035 BKN050
     FM231100 12005KT P6SM BKN025 BKN045
     FM231800 12008KT P6SM SCT030 SCT150 OVC250
     FM232300 12012KT P6SM VCSH BKN045 OVC090
     FM240100 12012KT P6SM -RA SCT025 BKN035 OVC045=

USA.gov is the U.S. government's official web portal to all federal, state and local government web resources and services.